Location: Devore Heights
(34.2372°N, 117.4156°W)
Time: 01:15:17
(UTC+00:00)

Altair - Pass Details

Date: 20 September 2024
Orbit: 1501 x 1682 km, 47.2° (Epoch: 09 October)

Event Time Altitude Azimuth Distance (km) Brightness Sun altitude
Exits shadow 07:41:44 12° 62° (ENE) 3,745 9.6 -54.9°
Drops below altitude 10° 07:42:20 10° 61° (ENE) 3,923 9.8 -54.9°
Sets 07:45:36 0° 57° (ENE) 4,925 10.4 -54.9°
